Temperature
20 20 20 20 20 20 20 20 20 20 19 19 19 19 19 19 19 19 19 19 19 18 18 18 18 18 18 18 18 18 18 18 18 18 18 17 17 17 17 17 17 17 17
21 20 20 20 20 20 20 20 20 19 19 19 19 19 19 19 19 19 19 19 18 18 18 18 18 18 18 18 18 18 18 18 18 18 17 17 17 17 17 17 17 17 17
21 20 20 20 20 20 20 20 19 19 19 19 19 19 19 19 19 19 18 18 18 18 18 18 18 18 18 18 18 18 18 18 18 18 18 17 17 17 17 17 17 17 17
21 21 20 20 20 20 20 20 19 19 19 19 19 19 19 19 19 18 18 19 18 18 18 18 18 18 18 18 18 18 17 17 18 18 18 17 17 17 17 17 17 17 17
21 21 20 20 20 20 20 20 19 19 19 19 19 19 19 18 18 18 18 19 18 18 18 18 18 18 18 18 17 17 17 17 18 18 18 18 17 17 17 17 17 17 17
21 21 20 20 20 20 20 20 19 19 19 19 19 19 19 19 19 18 18 18 18 18 18 18 18 18 18 17 17 17 17 17 18 18 18 18 17 17 17 17 17 17 17
21 21 20 20 20 20 20 20 19 19 19 19 19 19 19 19 19 19 19 18 18 18 18 18 18 18 17 17 17 17 17 17 18 18 18 18 17 17 17 17 17 17 17
21 21 20 20 20 20 20 20 19 19 19 19 19 19 19 19 18 19 19 19 19 18 18 18 18 18 17 17 17 17 17 17 18 18 18 18 17 17 17 17 17 17 17
21 21 20 20 20 20 20 20 20 19 19 19 19 19 19 19 19 19 19 19 19 18 18 18 18 18 17 17 17 17 17 18 18 18 18 17 17 17 17 17 17 17 17
21 21 20 20 20 20 20 20 20 19 19 19 19 19 19 19 19 18 18 18 18 18 18 18 18 18 17 17 17 17 17 18 18 18 18 18 17 17 17 17 17 17 17
20 20 20 20 20 20 20 19 19 19 19 19 19 19 18 18 18 18 18 18 18 18 18 18 18 18 17 17 17 17 17 18 18 18 18 18 18 17 17 17 17 17 17
20 20 20 20 20 20 20 19 19 19 19 19 19 18 18 18 18 18 18 18 18 18 18 18 18 18 18 17 17 17 18 18 18 18 18 18 18 17 17 17 17 17 17
20 20 20 20 20 20 20 20 19 19 19 19 18 18 18 18 18 18 18 18 18 18 18 18 18 18 18 18 18 18 18 18 18 18 18 18 18 17 17 17 17 17 17
20 20 20 20 20 20 20 20 19 19 19 19 18 18 18 18 18 18 18 18 18 18 18 18 18 18 18 18 18 18 18 18 18 18 18 18 18 17 17 17 17 17 17
21 20 20 20 20 20 20 19 19 19 19 19 18 18 18 18 18 18 18 18 18 18 18 18 18 18 18 18 18 18 18 18 18 18 18 18 17 17 17 17 17 17 17
21 20 20 20 20 20 20 19 19 19 19 18 18 18 18 18 18 18 18 18 18 18 18 18 18 18 18 18 18 18 18 18 18 18 18 18 17 17 17 17 17 17 17
21 20 20 20 19 19 19 19 19 19 19 18 18 18 18 18 18 18 18 18 18 18 18 18 18 18 18 18 18 18 18 18 18 18 18 17 17 17 17 17 17 17 17
21 20 20 19 19 19 19 19 19 19 19 19 18 18 18 18 18 18 18 18 18 18 18 18 18 17 17 18 18 18 17 17 17 17 17 17 17 17 17 17 17 17 17
21 20 20 19 19 19 19 19 19 19 19 19 18 18 18 18 18 18 18 18 18 18 18 18 18 17 18 17 18 18 17 17 17 17 17 17 17 17 17 17 17 17 16
21 20 20 20 19 19 18 18 18 18 18 18 18 18 18 18 18 18 18 18 18 18 18 18 17 17 18 17 17 17 17 17 17 17 17 17 17 17 17 17 17 16 16
20 20 20 19 19 19 18 18 18 18 18 18 18 18 18 18 18 18 18 18 18 18 18 18 17 17 17 17 17 17 17 17 17 17 17 17 17 17 17 17 17 16 16
20 20 19 19 19 19 19 18 18 18 18 18 18 18 18 18 18 18 18 18 18 17 17 17 17 17 17 17 17 17 17 17 17 17 17 17 17 17 17 17 16 16 16
20 20 19 19 19 19 18 18 18 18 18 18 18 18 18 18 18 18 18 18 18 17 17 17 17 17 17 17 17 17 17 17 17 17 17 17 17 17 17 17 17 16 16
20 20 19 19 19 18 18 18 18 18 18 18 18 18 18 18 18 18 18 17 17 17 17 17 17 17 17 17 17 17 17 18 17 17 17 17 17 17 17 17 17 16 16
20 20 19 19 19 18 18 18 18 18 18 18 18 18 18 18 17 17 17 17 17 17 17 17 17 17 17 17 17 17 17 17 17 17 17 17 17 17 17 17 17 16 16
20 19 19 19 18 18 18 18 18 18 18 18 18 18 18 17 17 17 17 17 17 17 17 17 17 17 17 17 17 17 17 17 17 17 17 17 17 17 17 17 16 16 16
Wind_Speed
10 13 21 21 21 21 21 20 20 20 20 21 21 21 21 21 20 20 20 19 19 19 19 19 20 20 20 20 20 20 20 21 21 20 20 20 20 20 20 20 19 18 20
15 18 22 22 21 21 21 20 20 20 20 20 20 20 20 20 19 19 19 19 19 19 19 19 19 19 19 20 20 20 20 20 20 20 19 19 19 19 19 18 18 17 19
19 19 22 22 22 22 21 20 19 19 19 19 19 19 19 19 19 19 19 19 19 19 19 18 18 18 19 19 18 19 19 19 19 19 18 16 16 18 18 19 19 18 18
19 19 21 24 23 22 21 20 19 19 19 19 19 19 19 19 18 18 18 19 19 18 18 18 18 17 18 17 17 17 17 17 18 17 14 13 14 17 18 18 18 18 18
16 18 22 25 23 23 22 21 20 19 19 19 19 19 19 19 19 18 18 19 18 18 17 17 16 16 16 16 15 15 15 16 17 15 14 13 14 17 17 17 17 17 17
15 18 23 25 24 23 22 21 20 19 19 19 19 18 18 18 18 18 18 18 18 17 16 16 15 15 14 14 13 13 14 17 16 14 14 13 13 16 16 17 17 17 17
17 16 22 25 24 23 22 21 21 20 19 19 19 18 18 18 18 18 17 17 17 16 15 14 13 13 13 12 11 12 14 17 15 14 12 12 13 15 16 16 16 16 16
19 15 20 24 24 23 22 21 21 20 20 19 19 19 18 18 17 17 17 16 16 15 14 12 11 11 11 10 10 12 15 16 15 13 12 13 15 16 16 16 16 15 15
16 14 14 19 21 22 22 21 21 20 20 19 19 18 18 17 17 16 16 16 15 14 12 11 10 9 9 9 10 11 15 16 14 13 13 12 15 15 15 15 15 15 15
14 13 12 14 16 17 19 21 21 20 19 19 19 19 18 17 17 16 15 15 14 13 11 10 9 7 7 8 10 12 16 16 13 12 12 13 15 15 14 14 14 14 14
14 12 12 11 12 14 16 19 19 19 19 19 18 19 17 14 14 14 14 14 13 12 10 9 7 6 6 7 9 13 14 13 13 12 11 14 15 14 14 13 13 13 13
17 14 12 12 12 13 14 15 14 14 15 14 14 15 13 13 12 13 14 13 12 11 9 7 6 5 5 6 8 11 12 14 12 11 12 15 14 14 13 13 13 12 12
18 16 14 13 12 10 8 11 9 10 11 12 13 14 13 11 10 10 9 10 9 8 6 5 4 3 3 5 6 9 11 11 10 10 12 15 14 13 13 12 12 12 11
18 17 15 13 11 9 10 8 8 8 8 8 11 13 11 7 7 7 6 7 6 5 5 4 3 2 3 6 7 8 10 10 10 10 13 14 14 13 13 12 11 11 11
18 17 17 16 14 10 9 7 9 7 8 10 11 13 13 8 6 6 5 6 6 6 5 4 3 3 3 5 7 9 9 10 11 11 12 14 14 14 13 12 12 11 11
19 18 16 16 14 11 10 8 8 9 10 11 10 13 15 12 8 6 5 5 5 7 7 6 4 3 3 3 5 8 10 11 11 11 11 13 14 14 13 12 12 11 11
19 18 16 16 14 14 12 10 9 10 11 9 10 13 14 14 11 8 5 4 6 8 7 5 4 4 3 3 4 6 8 9 10 11 11 11 12 12 12 12 11 11 10
16 16 17 16 14 13 11 9 8 10 10 9 11 13 14 15 14 9 5 5 7 7 5 4 3 3 3 3 3 4 5 7 8 10 11 11 11 10 11 12 11 11 10
17 17 16 14 14 12 11 8 8 8 9 10 11 11 13 14 14 10 6 5 8 5 3 3 3 3 3 3 3 3 3 4 5 8 8 10 11 11 11 11 11 11 11
15 15 14 13 13 11 9 7 7 7 7 7 8 10 12 12 13 10 6 6 7 5 4 3 3 3 3 3 3 3 2 3 4 5 6 8 10 11 11 10 10 10 10
14 14 14 14 13 11 9 9 8 8 7 7 7 10 12 12 12 9 6 5 5 5 5 6 4 3 2 2 3 3 3 1 2 3 4 5 7 10 11 11 10 9 8
16 16 15 14 13 12 9 7 6 7 6 6 6 8 11 11 11 9 7 6 6 5 5 5 4 3 2 2 4 3 2 3 2 2 3 5 5 7 8 10 11 11 10
16 17 16 15 14 12 10 7 6 5 4 4 5 6 7 11 11 9 9 7 6 6 6 5 5 5 3 1 2 4 4 4 2 2 2 3 4 4 4 8 11 12 12
15 14 13 14 14 12 12 11 11 8 7 6 6 6 7 9 9 10 10 8 7 6 6 6 5 4 5 3 1 1 3 4 4 1 2 2 3 4 5 5 9 12 13
14 13 12 13 13 12 12 13 12 8 6 5 6 7 7 6 7 9 9 7 7 6 7 6 5 5 4 4 3 2 2 2 2 3 2 2 2 2 4 4 6 9 13
11 11 12 13 12 12 13 13 12 12 10 9 8 8 7 5 5 7 9 7 7 6 6 6 6 6 5 4 3 3 3 3 3 3 3 2 2 3 2 3 4 7 11
Wind_Direction
147 148 138 131 125 120 116 112 109 106 105 103 102 103 103 105 107 109 109 110 109 108 108 108 108 108 108 109 110 110 111 112 111 111 110 109 108 108 107 106 104 104 106
146 147 140 134 129 124 121 117 114 111 109 107 106 106 107 107 108 110 110 110 111 110 110 109 109 109 109 110 111 111 111 111 110 109 109 109 108 108 108 107 107 110 108
142 144 141 137 132 128 126 123 119 116 113 111 109 109 110 111 111 112 112 112 111 110 110 110 109 109 109 111 111 112 111 110 110 108 106 104 108 109 110 109 109 110 109
141 142 142 139 135 132 130 127 124 120 117 115 114 113 113 113 115 114 114 113 113 112 112 111 111 111 111 112 112 113 113 112 113 108 102 105 110 112 111 111 111 111 111
138 141 144 141 138 136 133 131 128 125 122 120 118 117 116 116 116 116 116 115 115 114 113 112 112 112 113 113 111 112 112 114 115 107 101 101 108 115 114 114 114 114 113
138 142 145 143 141 139 137 135 133 130 128 125 123 122 120 120 119 118 118 117 117 116 115 115 114 113 113 111 109 109 112 116 112 108 108 109 113 118 118 117 116 116 115
140 143 146 145 143 142 140 139 137 134 132 129 128 126 124 124 123 122 121 120 120 119 118 118 118 117 114 112 109 110 116 119 115 111 113 114 118 121 120 118 118 118 119
143 144 147 147 146 145 144 143 141 139 137 134 132 130 129 128 127 126 126 125 125 124 123 122 122 119 114 110 107 109 118 126 122 120 118 118 123 122 121 120 121 121 122
142 143 146 148 149 148 147 146 145 143 141 139 137 136 134 134 132 131 130 130 131 130 129 129 127 121 113 107 103 110 123 127 123 127 125 123 126 125 124 124 125 125 125
143 146 146 148 148 148 149 149 148 147 145 144 143 141 140 139 137 136 135 135 136 135 136 135 132 124 110 103 102 110 125 126 126 123 126 132 132 130 129 128 129 129 129
150 152 150 148 147 147 150 153 152 151 150 149 148 146 143 139 139 140 142 142 141 141 142 141 137 126 106 98 104 112 120 123 123 126 135 140 138 136 135 133 132 132 133
159 160 158 155 153 153 156 152 153 152 152 150 149 145 144 144 147 148 150 148 147 148 148 148 141 129 102 96 106 113 120 127 127 135 142 144 143 142 141 139 138 138 139
162 162 163 160 160 161 151 154 154 151 152 153 154 153 154 152 150 146 148 149 148 148 146 150 141 123 107 110 115 126 133 135 142 145 151 149 148 148 147 146 146 146 146
164 165 164 164 165 162 153 160 157 155 160 163 167 164 156 150 147 150 152 153 153 151 147 147 147 136 115 116 119 133 140 142 145 148 157 156 156 156 154 154 154 153 153
167 168 169 167 168 164 158 167 164 163 169 172 172 170 162 156 157 158 160 162 164 159 158 159 158 141 124 114 126 135 142 146 150 156 161 164 165 163 163 162 162 162 163
171 171 170 170 168 164 166 169 167 168 170 171 172 171 166 163 161 160 161 166 168 169 165 160 155 140 134 133 138 144 149 154 159 162 163 170 173 172 172 172 172 172 173
171 170 171 170 168 169 170 172 169 171 170 170 169 170 167 164 162 160 161 162 167 165 154 140 130 119 124 129 131 139 154 161 167 168 169 171 177 181 181 181 181 181 180
167 168 170 171 169 170 168 168 165 170 168 169 167 167 167 164 163 158 159 164 161 152 140 130 120 112 113 125 135 144 154 164 169 172 174 178 181 186 191 190 189 188 189
169 168 169 166 167 167 163 159 159 164 164 164 162 163 167 166 163 157 158 164 159 145 141 149 124 128 131 137 148 143 151 161 166 174 178 184 189 192 193 198 198 198 199
166 167 167 164 165 161 157 149 146 153 160 158 161 164 164 165 162 153 155 158 155 142 145 142 137 132 142 149 133 121 145 162 166 179 186 189 194 195 197 198 200 203 207
164 167 169 167 169 165 163 162 159 161 163 162 166 165 163 163 159 155 154 153 152 155 164 157 141 137 131 121 91 55 16 31 177 185 184 181 193 198 197 198 197 197 202
172 172 171 173 172 173 168 165 160 152 161 164 165 164 163 163 163 165 156 161 161 156 159 158 142 135 136 132 127 108 52 3 333 227 194 190 192 190 194 200 197 196 196
176 176 177 175 173 171 162 150 142 130 128 144 160 167 171 170 170 166 165 162 166 162 169 171 157 145 154 170 152 143 148 199 269 323 255 202 190 187 196 195 194 197 199
179 176 175 175 173 170 165 163 162 166 168 174 170 171 173 175 175 171 167 167 169 168 170 177 164 151 148 162 171 162 159 154 151 203 322 280 214 200 200 194 189 194 198
174 173 173 170 172 173 173 171 169 171 171 155 157 167 175 179 180 174 171 168 171 174 175 173 158 156 153 160 167 162 131 114 126 143 200 284 299 242 212 198 187 192 196
167 172 173 174 178 178 176 175 176 173 169 163 169 177 182 183 186 182 176 174 176 178 178 176 167 160 161 155 159 162 158 158 170 158 175 209 233 264 240 215 200 197 199
Height
1512 1514 1516 1518 1519 1520 1521 1522 1523 1524 1525 1526 1527 1528 1529 1530 1531 1533 1534 1535 1536 1537 1538 1539 1539 1540 1541 1542 1544 1544 1545 1546 1547 1548 1549 1550 1550 1551 1551 1552 1553 1554 1555
1510 1514 1517 1519 1520 1521 1523 1524 1525 1526 1527 1528 1529 1530 1531 1532 1533 1535 1536 1537 1538 1539 1540 1541 1542 1543 1544 1545 1546 1547 1548 1549 1550 1551 1551 1552 1553 1553 1554 1554 1555 1556 1557
1510 1514 1517 1519 1521 1523 1524 1525 1527 1528 1529 1530 1531 1532 1533 1534 1535 1536 1538 1539 1540 1541 1542 1543 1544 1545 1546 1547 1548 1549 1550 1551 1552 1553 1553 1554 1555 1556 1556 1557 1557 1558 1559
1510 1514 1517 1520 1522 1524 1525 1527 1528 1529 1530 1532 1533 1534 1535 1536 1537 1538 1539 1541 1542 1543 1544 1545 1547 1548 1549 1549 1550 1552 1553 1554 1554 1555 1556 1556 1557 1558 1558 1559 1559 1560 1561
1511 1515 1518 1520 1522 1524 1526 1528 1529 1531 1532 1533 1534 1536 1537 1538 1539 1540 1541 1543 1544 1545 1547 1548 1549 1550 1551 1552 1553 1554 1555 1556 1556 1557 1558 1558 1559 1560 1560 1561 1561 1562 1563
1512 1515 1518 1521 1523 1525 1527 1529 1530 1532 1533 1535 1536 1537 1539 1540 1541 1542 1543 1545 1546 1547 1549 1550 1551 1552 1553 1554 1555 1556 1557 1558 1558 1559 1560 1560 1561 1561 1562 1563 1564 1564 1565
1512 1516 1519 1521 1524 1526 1528 1530 1531 1533 1534 1536 1537 1539 1540 1541 1543 1544 1545 1547 1548 1549 1551 1552 1554 1555 1556 1556 1557 1558 1559 1560 1560 1561 1561 1562 1563 1563 1564 1565 1566 1566 1567
1512 1516 1519 1522 1524 1526 1528 1530 1532 1534 1535 1537 1538 1540 1541 1543 1544 1546 1547 1548 1550 1551 1553 1554 1556 1557 1558 1559 1559 1560 1561 1561 1562 1563 1563 1564 1564 1565 1566 1567 1567 1568 1569
1512 1515 1519 1522 1525 1527 1529 1531 1533 1534 1536 1538 1539 1541 1543 1544 1546 1547 1549 1550 1552 1553 1555 1556 1558 1559 1560 1561 1561 1562 1563 1563 1564 1564 1565 1565 1566 1567 1568 1568 1569 1570 1571
1513 1516 1518 1521 1524 1527 1529 1531 1533 1535 1537 1538 1540 1542 1544 1545 1547 1549 1550 1552 1553 1555 1556 1558 1559 1561 1562 1563 1563 1564 1564 1565 1566 1566 1567 1567 1568 1569 1569 1570 1571 1572 1573
1513 1516 1518 1521 1524 1526 1529 1531 1533 1535 1537 1539 1541 1543 1544 1546 1548 1550 1551 1553 1555 1556 1558 1559 1561 1562 1564 1564 1565 1566 1566 1567 1567 1568 1568 1569 1570 1570 1571 1572 1573 1573 1574
1511 1514 1517 1520 1523 1526 1528 1530 1533 1535 1537 1539 1541 1543 1545 1547 1549 1551 1553 1554 1556 1558 1559 1561 1562 1564 1565 1566 1567 1567 1568 1568 1569 1569 1570 1570 1571 1572 1573 1573 1574 1575 1576
1508 1512 1515 1518 1521 1524 1527 1530 1532 1534 1537 1539 1541 1544 1546 1548 1550 1552 1553 1555 1557 1559 1560 1562 1564 1565 1566 1567 1568 1568 1569 1570 1570 1571 1571 1572 1573 1573 1574 1575 1575 1576 1577
1506 1509 1513 1517 1520 1523 1526 1529 1532 1534 1536 1539 1541 1544 1546 1548 1550 1552 1554 1556 1558 1560 1561 1563 1565 1566 1567 1568 1569 1570 1570 1571 1571 1572 1573 1573 1574 1575 1575 1576 1577 1577 1578
1504 1508 1511 1515 1519 1522 1525 1528 1531 1534 1536 1539 1541 1544 1546 1548 1550 1553 1555 1557 1559 1560 1562 1564 1565 1567 1568 1569 1570 1571 1571 1572 1572 1573 1573 1574 1575 1576 1576 1577 1578 1578 1579
1501 1505 1509 1513 1517 1520 1523 1527 1530 1533 1536 1538 1541 1543 1546 1548 1550 1553 1555 1557 1559 1561 1562 1564 1566 1567 1568 1569 1570 1571 1572 1573 1573 1574 1574 1575 1576 1576 1577 1577 1578 1579 1579
1498 1502 1507 1511 1515 1518 1522 1525 1528 1531 1534 1537 1540 1543 1545 1548 1550 1552 1554 1556 1558 1560 1562 1564 1566 1567 1568 1569 1571 1571 1572 1573 1574 1575 1575 1576 1576 1577 1577 1578 1578 1579 1580
1495 1500 1504 1508 1512 1516 1519 1523 1526 1530 1533 1536 1539 1542 1544 1547 1549 1552 1554 1556 1558 1560 1562 1563 1565 1566 1568 1569 1570 1571 1572 1573 1574 1575 1576 1576 1577 1577 1578 1578 1579 1579 1580
1493 1497 1501 1505 1509 1513 1517 1521 1524 1528 1531 1534 1537 1540 1543 1545 1548 1551 1553 1555 1557 1559 1561 1563 1564 1566 1567 1569 1570 1572 1573 1573 1574 1575 1576 1576 1577 1577 1578 1578 1579 1579 1580
1491 1495 1499 1502 1507 1511 1516 1519 1522 1526 1530 1532 1535 1538 1541 1544 1547 1549 1552 1554 1556 1558 1560 1562 1563 1565 1567 1569 1570 1571 1572 1573 1574 1575 1576 1576 1577 1577 1577 1578 1578 1579 1579
1489 1492 1496 1500 1504 1508 1512 1516 1519 1523 1527 1530 1533 1536 1540 1542 1545 1548 1550 1553 1555 1557 1558 1560 1562 1564 1566 1567 1569 1571 1572 1573 1573 1574 1575 1575 1576 1576 1577 1577 1578 1579 1579
1485 1489 1492 1497 1500 1505 1509 1513 1517 1521 1525 1528 1531 1534 1538 1541 1543 1546 1549 1551 1553 1555 1557 1559 1561 1563 1564 1566 1568 1569 1571 1573 1572 1573 1574 1574 1575 1576 1576 1577 1577 1578 1578
1482 1485 1489 1494 1497 1502 1506 1511 1516 1520 1523 1526 1528 1531 1535 1538 1541 1544 1546 1549 1551 1553 1555 1557 1559 1561 1563 1565 1567 1568 1569 1570 1571 1572 1572 1573 1574 1574 1575 1576 1576 1577 1577
1479 1483 1486 1491 1494 1499 1504 1508 1511 1515 1517 1521 1525 1528 1532 1536 1539 1541 1544 1546 1549 1551 1553 1556 1558 1560 1562 1563 1565 1566 1568 1568 1569 1570 1571 1572 1572 1573 1574 1574 1575 1575 1576
1476 1480 1484 1487 1491 1496 1500 1504 1508 1512 1516 1520 1523 1527 1530 1533 1536 1539 1541 1544 1546 1549 1551 1554 1556 1558 1560 1561 1563 1564 1565 1566 1567 1568 1569 1570 1571 1572 1572 1573 1573 1574 1574
1475 1478 1482 1485 1489 1493 1497 1501 1505 1509 1513 1516 1520 1523 1527 1530 1533 1536 1539 1541 1544 1546 1549 1551 1553 1556 1558 1559 1561 1562 1563 1564 1565 1566 1567 1568 1569 1570 1571 1571 1572 1572 1573